Find Starlink 2642

NORAD ID: 48437 Int'l Des: 2021-040 Owner: SPXS Country: US Constellation: starlink operational
LEOCIRCULARSTARLINK_TYPE

Live Position

Loading 3D Globe...

About Starlink 2642

Description loading...

Upcoming Passes

Passes for default location (London). Set your location on the main map for personalized predictions.

Altitude History

Loading altitude history...

Two-Line Element Set

1 48437U 21040K 26126.46373622 .00006291 00000-0 21422-3 0 9995
2 48437 53.1589 282.4195 0001230 89.8714 270.2428 15.31714750275343
Epoch: May 6, 2026 • Age: 7 hours

Current Status

Altitude 474.3 km
Velocity 7.63 km/s
Sub-Earth Point 43.65°N, 77.56°W
Launch Date May 9, 2021
Age 4.9 years
Type internet

Technical Details

Classification Payload
Mass 260.00 kg
Dry Mass 248.00 kg
Total Mass 260.00 kg
Length 0.20 m
Diameter 2.80 m
Span 9.00 m
Shape Box + pan
Manufacturer SPXS
Bus Type Starlink
Phase Status In Orbit
Owner/State SPXS/US

Most Searched